Resia Pass, Italy

1:38 PM CEST on June 27, 2017 (GMT +0200)
Resia Pass

Weather History for LIVE - March, 2013

Change the Weather History Date:

Wednesday, March 27, 2013

  Actual Average Record
Temperature  
Mean Temperature 30 °F -  
Max Temperature 37 °F 46 °F 59 °F (2012)
Min Temperature 24 °F 27 °F 17 °F (2004)
Degree Days  
Heating Degree Days 34    
Moisture  
Dew Point 24 °F    
Average Humidity 80    
Maximum Humidity 93    
Minimum Humidity 60    
Precipitation  
Precipitation 0.00 in - - ()
Sea Level Pressure  
Sea Level Pressure 29.54 in    
Wind  
Wind Speed 6 mph ()    
Max Wind Speed 10 mph    
Max Gust Speed -    
Visibility 5.8 miles    
Events      
Averages and records for this station are not official NWS values.
T = Trace of Precipitation, MM = Missing Value Source: Averaged Metar Reports

Daily Weather History Graph

Daily Weather History Graph

Search for Another Location

Airport or City:

Trip Planner

Search our weather history database for the weather conditions in past years. The results will help you decide how hot, cold, wet, or windy it might be!

Date:

Astronomy

Mar. 27, 2013 Rise Set
Actual Time 6:07 AM CET 6:40 PM CET
Civil Twilight 5:36 AM CET 7:10 PM CET
Nautical Twilight 5:00 AM CET 7:47 PM CET
Astronomical Twilight 4:23 AM CET 8:24 PM CET
Moon 7:09 PM CET 5:46 AM CET
Length of Visible Light 13h 34m
Length of Day
12h 33m
Full, 100% of the Moon is Illuminated
Mar 27
Full
Apr 3
Last Quarter
Apr 10
New
Apr 18
First Quarter
Apr 25
Full

Hourly Weather History & Observations

Time (CET) Temp. Windchill Dew Point Humidity Pressure Visibility Wind Dir Wind Speed Gust Speed Precip Events Conditions
12:55 AM 26.6 °F 19.1 °F 21.2 °F 80% 29.50 in 6.2 mi North 6.9 mph - N/A   Scattered Clouds
2:55 AM 24.8 °F 17.9 °F 21.2 °F 86% 29.50 in 6.2 mi NNW 5.8 mph - N/A   Partly Cloudy
3:55 AM 24.8 °F 17.9 °F 21.2 °F 86% 29.50 in 6.2 mi NNW 5.8 mph - N/A   Scattered Clouds
4:55 AM 24.8 °F 19.1 °F 21.2 °F 86% 29.50 in - North 4.6 mph - N/A   Clear
5:55 AM 24.8 °F 19.1 °F 19.4 °F 80% 29.50 in - NNW 4.6 mph - N/A   Clear
6:55 AM 24.8 °F 19.1 °F 19.4 °F 80% 29.50 in - NNW 4.6 mph - N/A   Clear
7:55 AM 24.8 °F 19.1 °F 19.4 °F 80% 29.50 in - North 4.6 mph - N/A   Clear
8:55 AM 28.4 °F 23.3 °F 21.2 °F 74% 29.50 in - North 4.6 mph - N/A   Clear
9:55 AM 28.4 °F 22.2 °F 21.2 °F 74% 29.50 in 6.2 mi North 5.8 mph - N/A   Partly Cloudy
10:55 AM 35.6 °F 29.9 °F 23.0 °F 60% 29.50 in 6.2 mi South 6.9 mph - N/A   Scattered Clouds
11:55 AM 37.4 °F 31.4 °F 26.6 °F 65% 29.50 in 6.2 mi South 8.1 mph - N/A   Scattered Clouds
12:55 PM 35.6 °F 29.2 °F 26.6 °F 70% 29.53 in 6.2 mi South 8.1 mph - N/A   Scattered Clouds
1:55 PM 35.6 °F 28.6 °F 26.6 °F 70% 29.50 in 6.2 mi South 9.2 mph - N/A   Scattered Clouds
2:55 PM 35.6 °F 29.2 °F 26.6 °F 70% 29.53 in 6.2 mi South 8.1 mph - N/A   Partly Cloudy
3:55 PM 33.8 °F 25.8 °F 26.6 °F 75% 29.53 in 6.2 mi South 10.4 mph - N/A   Partly Cloudy
4:55 PM 32.0 °F 23.6 °F 24.8 °F 75% 29.56 in 6.2 mi South 10.4 mph - N/A   Mostly Cloudy
5:55 PM 32.0 °F 24.8 °F 26.6 °F 80% 29.56 in 6.2 mi SE 8.1 mph - N/A   Mostly Cloudy
6:55 PM 30.2 °F 23.4 °F 26.6 °F 86% 29.56 in 6.2 mi SSE 6.9 mph - N/A   Mostly Cloudy
7:55 PM 30.2 °F 23.4 °F 28.4 °F 93% 29.59 in 6.2 mi SSE 6.9 mph - N/A   Mostly Cloudy
8:55 PM 30.2 °F 23.4 °F 28.4 °F 93% 29.62 in 6.2 mi SSE 6.9 mph - N/A   Mostly Cloudy
9:55 PM 30.2 °F 25.4 °F 28.4 °F 93% 29.62 in 5.0 mi South 4.6 mph - N/A   Mostly Cloudy
10:55 PM 30.2 °F 24.3 °F 28.4 °F 93% 29.62 in 3.7 mi South 5.8 mph - N/A   Mostly Cloudy
11:55 PM 30.2 °F 25.4 °F 26.6 °F 86% 29.65 in 3.1 mi SSE 4.6 mph - N/A   Mostly Cloudy